Anderson, SC

7:38 PM EDT on September 25, 2016 (GMT -0400)
Anderson Regional

Weather History for KAND - March, 2014

Change the Weather History Date:

Thursday, March 20, 2014

  Actual Average Record
Temperature  
Mean Temperature 58 °F -  
Max Temperature 71 °F 66 °F 86 °F (1982)
Min Temperature 45 °F 43 °F 28 °F (1965)
Degree Days  
Heating Degree Days 8    
Growing Degree Days 8 (Base 50)    
Moisture  
Dew Point 33 °F    
Average Humidity 51    
Maximum Humidity 93    
Minimum Humidity 12    
Precipitation  
Precipitation 0.00 in - - ()
Sea Level Pressure  
Sea Level Pressure 30.02 in    
Wind  
Wind Speed 7 mph (WSW)    
Max Wind Speed 16 mph    
Max Gust Speed 20 mph    
Visibility 10 miles    
Events      
Averages and records for this station are not official NWS values.
T = Trace of Precipitation, MM = Missing Value Source: NWS Daily Summary

Daily Weather History Graph

Daily Weather History Graph

Search for Another Location

Airport or City:

Trip Planner

Search our weather history database for the weather conditions in past years. The results will help you decide how hot, cold, wet, or windy it might be!

Date:

Astronomy

Mar. 20, 2014 Rise Set
Actual Time 7:34 AM EDT 7:42 PM EDT
Civil Twilight 7:09 AM EDT 8:07 PM EDT
Nautical Twilight 6:40 AM EDT 8:36 PM EDT
Astronomical Twilight 6:10 AM EDT 9:06 PM EDT
Moon 11:50 PM EDT (3/20) 9:49 AM EDT (3/20)
Length of Visible Light 12h 58m
Length of Day
12h 08m
Waning Gibbous, 84% of the Moon is Illuminated
Mar 20
Waning Gibbous
Mar 23
Last Quarter
Mar 30
New
Apr 7
First Quarter
Apr 15
Full

Hourly Weather History & Observations

Time (EDT) Temp. Windchill Dew Point Humidity Pressure Visibility Wind Dir Wind Speed Gust Speed Precip Events Conditions
12:56 AM 48.0 °F - 45.0 °F 89% 30.04 in 10.0 mi WSW 9.2 mph - N/A   Clear
1:56 AM 46.9 °F - 45.0 °F 93% 30.04 in 10.0 mi SW 6.9 mph - N/A   Clear
2:56 AM 46.9 °F - 44.1 °F 90% 30.02 in 10.0 mi WSW 4.6 mph - N/A   Clear
3:56 AM 48.9 °F - 45.0 °F 86% 30.00 in 10.0 mi West 6.9 mph - N/A   Clear
4:56 AM 50.0 °F - 46.0 °F 86% 29.99 in 10.0 mi West 8.1 mph - N/A   Clear
5:56 AM 50.0 °F - 45.0 °F 83% 30.00 in 10.0 mi West 5.8 mph - N/A   Clear
6:56 AM 46.0 °F - 44.1 °F 93% 30.01 in 10.0 mi Calm Calm - N/A   Clear
7:56 AM 45.0 °F 43.5 °F 43.0 °F 93% 30.03 in 7.0 mi WSW 3.5 mph - N/A   Clear
8:56 AM 50.0 °F - 46.0 °F 86% 30.03 in 10.0 mi WSW 4.6 mph - N/A   Clear
9:56 AM 55.0 °F - 43.0 °F 64% 30.05 in 10.0 mi West 6.9 mph - N/A   Clear
10:56 AM 59.0 °F - 39.9 °F 49% 30.06 in 10.0 mi Variable 4.6 mph - N/A   Clear
11:56 AM 61.0 °F - 37.9 °F 42% 30.06 in 10.0 mi North - - N/A   Clear
12:56 PM 64.0 °F - 32.0 °F 30% 30.05 in 10.0 mi West 8.1 mph 18.4 mph N/A   Clear
1:56 PM 64.9 °F - 28.0 °F 25% 30.02 in 10.0 mi Variable 5.8 mph - N/A   Clear
2:56 PM 68.0 °F - 27.0 °F 21% 29.99 in 10.0 mi WSW 13.8 mph 19.6 mph N/A   Clear
3:56 PM 69.1 °F - 21.0 °F 16% 29.96 in 10.0 mi WSW 11.5 mph - N/A   Clear
4:56 PM 70.0 °F - 17.1 °F 13% 29.96 in 10.0 mi West 12.7 mph - N/A   Clear
5:56 PM 68.0 °F - 14.0 °F 12% 29.96 in 10.0 mi West 16.1 mph - N/A   Clear
6:56 PM 66.0 °F - 15.1 °F 14% 29.97 in 10.0 mi West 12.7 mph - N/A   Clear
7:56 PM 62.1 °F - 19.0 °F 19% 30.00 in 10.0 mi West 11.5 mph - N/A   Clear
8:56 PM 55.9 °F - 21.9 °F 27% 30.01 in 10.0 mi West 5.8 mph - N/A   Clear
9:56 PM 55.0 °F - 23.0 °F 29% 30.02 in 10.0 mi West 9.2 mph - N/A   Clear
10:56 PM 53.1 °F - 24.1 °F 32% 30.04 in 10.0 mi West 6.9 mph - N/A   Clear
11:56 PM 48.0 °F - 25.0 °F 41% 30.07 in 10.0 mi Calm Calm - N/A   Clear